Location: Strada George Coșbuc
(47.6577°N, 23.5639°E)
Time: 03:07:25
(UTC+03:00)

ISS - Pass Details

Date: 06 October 2017
Orbit: 401 x 408 km, 51.6° (Epoch: 19 October)

Event Time Altitude Azimuth Distance (km) Brightness Sun altitude
Rises 20:47:05 0° 290° (WNW) 2,328 1.6 -19.6°
Reaches altitude 10° 20:49:13 10° 296° (WNW) 1,468 0.2 -19.9°
Enters shadow 20:52:17 47° 3° (N) 548 -3.2 -20.4°
